ORBCOMM FM32

Last updated on Wed Sep 23 2026 00:03:43 GMT+0000 (Coordinated Universal Time)

1 25982U 99065C 26264.91327305 .00000373 00000+0 17116-3 0 9996 2 25982 45.0147 75.3522 0006719 176.2425 183.8475 14.37245900401009
UTC large
Height (km)
Speed (km/s)
/
Latitude / Longitude
Inclination (degrees)
Orbital Period (minutes)
Azimuth
Elevation
Range (km)
Doppler Factor

Next 0 passes for location: London (51.5072 / 0.1276)

No passes found over London.
ORBCOMM FM32